Terminal Aerodrome Forecast
Issued by NWS Wichita, KS

Home | Current Version | Previous Version | Text Only | Print | Product List | Glossary On
Versions: 1 2 3 4 5 6 7 8 9 10 11 12 13 14 15 16 17 18 19
000
FTUS43 KICT 181100
TAFICT
TAF
KICT 181132Z 1812/1912 09010KT P6SM SCT020 BKN035
      TEMPO 1812/1815 5SM BR BKN007
     FM181500 11008KT P6SM SCT010 BKN035
     FM181800 12009KT P6SM SCT035
     FM190700 16006KT P6SM BKN017=

USA.gov is the U.S. government's official web portal to all federal, state and local government web resources and services.